Theta_e
332 328 327 330 328 320 319 316 311 310 313 318 322 323 322 324 324 323 319 309 309 309 308 307 307 306 305 305 305 304 304 304 304 304 303 303 303 303 303 303 303 303 304
334 332 328 330 331 323 319 318 313 310 312 315 322 324 322 322 324 323 321 313 309 309 309 308 307 306 306 305 305 304 304 304 304 303 303 303 302 302 302 302 302 302 303
337 333 331 329 332 328 319 318 313 310 312 315 321 322 323 322 323 323 322 319 309 309 309 308 308 307 306 305 305 305 304 304 304 303 303 302 302 302 302 302 301 301 303
338 335 333 330 331 333 321 319 315 310 311 314 322 321 322 323 323 323 322 321 312 309 309 309 308 308 307 307 306 305 305 304 304 303 303 302 302 302 301 301 301 300 300
338 336 334 333 332 334 327 320 316 311 311 314 321 320 323 324 323 322 322 321 316 310 309 309 309 308 307 306 306 306 305 305 304 303 302 302 302 301 301 301 300 300 300
337 338 335 334 333 335 330 322 319 312 311 314 318 323 324 324 324 323 322 322 319 314 310 310 309 309 308 307 306 306 306 305 304 303 303 302 301 301 300 300 299 299 300
339 339 337 335 334 335 335 326 321 313 312 319 323 325 325 324 323 323 323 322 321 319 313 310 310 310 308 307 306 307 307 306 305 304 303 302 302 301 300 299 299 299 299
340 339 339 338 337 337 336 330 324 316 312 321 324 325 324 323 323 323 323 322 321 320 316 313 312 311 310 308 307 307 307 307 307 305 304 302 301 301 299 299 299 298 299
342 340 340 339 338 338 338 333 326 321 314 322 325 325 324 323 323 322 322 322 322 321 319 317 315 314 313 311 308 307 307 307 308 307 305 303 302 301 299 298 298 298 302
340 340 341 340 338 337 337 337 330 324 318 319 326 326 325 324 323 322 322 322 321 321 321 320 318 317 315 314 312 310 308 306 307 308 307 305 303 301 299 299 300 303 306
342 341 342 341 339 338 337 336 334 329 324 321 323 326 325 324 323 323 322 321 321 321 321 321 320 319 318 316 315 314 312 308 306 306 306 305 304 302 300 299 299 301 299
342 341 341 341 340 338 337 336 335 333 330 325 323 325 326 325 323 322 322 322 322 322 322 321 320 320 319 319 318 316 315 312 309 307 305 307 306 305 303 305 305 304 303
343 341 341 341 341 340 338 337 336 334 333 329 327 325 325 326 325 324 323 323 322 321 322 321 321 320 320 319 319 318 317 315 313 311 308 306 308 308 307 306 305 304 306
342 341 340 340 339 339 340 337 336 335 333 331 328 328 327 326 325 325 325 323 321 321 321 322 322 321 320 320 320 319 318 316 315 312 310 308 306 307 307 306 305 305 305
333 335 339 338 338 338 338 337 337 335 333 333 329 328 327 327 327 326 324 324 323 321 321 322 322 323 322 321 320 319 318 317 315 314 311 309 308 307 304 300 302 301 302
336 335 335 335 335 337 337 336 336 336 335 334 331 328 327 326 326 326 325 324 323 322 321 323 323 323 323 322 321 320 319 318 316 315 314 312 310 309 307 304 300 301 301
336 335 335 335 335 335 335 335 335 335 335 335 334 333 330 328 325 325 325 324 324 321 320 321 321 322 321 321 321 321 320 318 317 315 314 313 312 310 309 307 304 302 299
335 335 335 335 333 335 335 335 335 335 335 335 335 334 332 330 328 325 326 325 326 324 322 320 321 321 321 321 321 320 320 318 318 316 314 313 312 312 310 308 307 304 300
326 329 331 331 330 333 336 332 333 335 334 334 334 334 333 330 328 327 326 325 325 325 324 322 320 320 319 319 318 319 318 317 317 316 314 313 314 312 310 309 307 305 300
308 314 316 320 329 331 332 331 333 333 333 332 332 333 334 333 332 330 327 327 326 325 325 323 321 320 320 320 319 318 317 317 316 315 314 313 312 312 310 309 307 305 301
305 305 307 312 317 323 328 329 331 331 329 328 332 332 332 332 332 331 330 328 328 325 324 323 322 319 320 320 319 320 317 316 314 313 314 312 311 310 310 308 308 306 303
307 306 304 305 310 314 319 328 328 329 330 327 330 330 330 328 330 329 331 330 330 329 324 323 322 319 321 321 320 317 316 312 309 312 313 311 311 310 309 308 307 305 303
303 304 307 304 304 309 314 318 322 326 328 329 329 328 329 327 324 326 329 330 330 329 329 325 322 321 320 322 323 317 315 315 315 313 311 307 309 309 309 308 307 305 302
301 302 303 304 305 304 307 313 316 319 323 326 327 328 328 326 327 327 326 328 327 325 324 322 321 322 322 322 321 321 318 313 311 309 308 306 306 306 306 306 305 304 301
300 300 301 302 303 304 306 308 312 315 317 321 323 324 325 326 325 325 326 325 326 325 323 322 323 321 320 319 318 317 312 310 308 306 305 306 305 303 303 302 301 301 300
300 300 300 299 300 303 304 309 314 315 315 316 319 323 323 323 324 325 326 326 325 325 323 322 320 318 317 317 316 315 315 312 308 304 303 304 303 303 299 298 298 298 297
Wind_Speed
39 37 37 34 31 29 27 26 26 27 28 31 26 22 17 14 11 8 7 8 7 7 7 8 8 8 8 8 8 8 8 8 7 6 6 6 6 5 5 6 7 7 8
42 42 40 37 34 31 29 27 27 28 29 32 29 24 19 17 13 11 8 10 10 10 9 9 9 9 8 8 8 8 8 8 7 6 6 6 5 5 5 5 5 6 6
45 45 43 40 36 31 29 29 29 29 30 33 30 26 22 19 15 14 11 10 13 12 11 10 10 9 9 9 9 9 8 7 7 6 6 5 5 5 5 6 5 7 10
46 45 45 42 38 35 33 32 31 32 32 34 33 29 25 20 19 17 14 13 14 15 12 12 12 11 10 10 8 8 8 7 7 7 5 4 4 4 5 5 5 7 7
45 47 47 44 41 38 36 35 34 34 35 35 33 29 26 23 21 20 17 15 15 16 14 15 15 14 13 11 10 10 9 8 8 6 6 6 6 6 6 5 6 7 6
47 48 48 46 43 41 39 38 37 37 35 35 33 29 26 23 23 21 19 17 17 18 18 17 17 16 15 13 13 12 12 11 10 9 9 8 8 8 7 7 7 8 9
48 48 49 49 45 44 42 39 39 39 39 35 34 28 25 23 23 22 22 21 21 20 20 20 20 19 17 16 17 16 15 14 14 13 12 10 10 10 9 8 9 10 10
51 49 49 49 46 44 43 42 42 43 42 40 39 37 27 24 27 26 26 27 24 22 23 23 23 22 21 20 21 20 19 17 17 16 15 14 13 12 11 10 11 12 12
49 50 51 48 46 45 46 44 43 44 46 43 42 32 21 17 32 32 33 31 28 27 26 25 25 24 24 23 23 22 22 21 20 19 18 17 17 15 15 14 13 12 14
50 51 54 50 47 46 46 44 44 45 46 49 49 45 34 23 19 19 38 36 33 32 31 29 28 28 27 26 26 26 26 25 23 23 21 21 20 19 18 16 16 16 16
48 48 55 54 51 50 49 46 46 47 47 48 53 50 45 34 28 26 28 42 40 39 37 34 31 30 30 30 29 29 28 28 27 27 26 26 23 22 21 20 19 20 18
50 48 51 55 55 51 50 47 46 46 50 51 52 54 54 52 42 36 28 33 44 42 40 39 38 36 34 33 32 31 30 31 30 31 32 29 27 25 22 21 20 19 17
49 54 53 54 56 55 52 50 50 48 52 52 54 56 56 57 50 46 42 35 37 44 43 44 42 41 40 37 36 34 33 34 34 34 34 32 28 25 23 22 20 18 18
52 52 56 55 55 54 54 53 52 53 51 55 56 56 57 57 58 56 51 43 35 37 44 46 44 46 45 43 40 37 37 37 37 36 36 35 32 27 25 23 22 19 20
40 45 54 57 57 56 57 56 56 56 57 56 59 59 60 59 59 59 59 55 45 33 45 47 47 45 46 46 45 44 43 41 39 38 37 39 36 32 28 25 25 23 22
44 46 49 49 51 58 57 57 58 57 58 58 60 61 61 58 59 61 61 60 56 47 39 43 46 46 45 46 47 48 46 45 42 42 41 40 39 35 34 34 33 31 29
30 31 34 40 47 50 54 54 56 57 59 59 60 60 63 62 52 55 58 61 60 54 48 47 43 43 45 49 47 50 49 48 49 45 46 43 42 40 40 38 39 34 33
21 27 29 39 38 51 53 49 53 55 58 58 61 60 61 63 64 61 61 60 62 60 58 52 52 50 48 47 46 46 47 51 55 51 49 47 45 43 44 42 41 37 36
13 17 13 19 25 32 43 46 42 50 52 56 57 58 61 63 63 65 64 63 62 60 59 57 51 51 48 45 44 45 47 52 56 55 52 50 50 50 46 44 43 39 37
7 9 10 10 12 22 38 40 51 46 49 50 53 55 60 60 62 65 66 65 66 63 62 62 58 50 50 49 47 45 50 52 54 56 53 52 53 51 47 46 45 43 40
5 6 10 13 11 16 20 30 46 45 47 46 54 51 54 56 57 59 59 62 60 60 61 62 57 52 54 54 54 55 55 52 50 52 50 53 52 55 51 51 48 47 42
13 10 9 10 10 11 15 22 34 26 41 36 54 54 47 53 47 55 54 55 55 56 59 59 56 53 59 59 56 55 50 48 45 50 51 53 52 57 56 56 53 50 45
12 14 17 14 11 12 14 16 26 22 30 37 49 41 50 41 39 43 46 48 51 55 53 56 55 54 54 55 49 48 51 55 51 46 47 48 51 56 59 58 55 52 48
15 15 15 18 19 16 16 18 19 20 26 28 34 42 42 36 45 48 56 52 54 53 58 54 49 49 48 45 39 40 42 46 45 43 40 44 48 53 54 55 54 54 50
19 20 19 19 20 19 20 21 23 21 21 26 29 31 36 42 39 34 40 42 30 38 46 44 49 51 53 40 38 38 42 37 41 44 41 40 42 46 47 48 49 52 51
25 26 25 24 23 23 21 21 23 23 22 23 25 30 30 32 33 37 38 35 36 35 33 40 46 48 47 40 39 35 35 40 40 37 39 39 40 42 38 43 46 47 46
Wind_Direction
204 205 207 203 199 196 194 189 187 183 181 177 192 200 198 201 209 224 226 208 192 173 166 162 163 160 161 163 163 158 159 157 162 167 165 163 165 168 162 173 174 177 173
207 208 209 207 206 202 198 197 194 189 185 182 191 203 203 208 215 228 229 223 210 193 184 177 176 177 176 175 170 170 164 165 164 167 165 163 164 157 159 163 160 156 154
209 210 212 210 209 207 204 199 198 192 187 186 192 206 204 210 221 229 233 235 218 207 195 191 192 195 191 189 185 184 179 171 173 181 172 167 170 171 176 175 160 161 154
210 210 215 213 212 209 206 206 202 195 191 192 192 205 208 211 223 228 232 240 230 221 208 206 207 205 207 201 200 198 195 192 193 191 184 182 190 183 199 194 175 178 178
211 212 215 215 213 213 208 207 205 204 194 194 196 206 211 216 220 228 232 240 237 232 226 218 215 213 213 211 215 217 211 211 214 208 198 198 201 208 214 200 184 188 179
214 213 215 216 214 213 212 210 209 206 204 195 195 205 213 220 226 229 238 241 240 237 232 229 231 223 220 218 224 228 221 221 223 219 213 213 211 219 217 209 200 196 184
217 214 216 216 213 217 216 213 210 208 203 196 191 201 212 219 231 234 238 244 241 242 239 237 238 236 237 231 230 227 226 228 230 226 225 223 225 224 219 215 206 194 193
217 216 219 218 216 216 216 215 213 205 206 200 193 197 190 208 220 226 234 240 241 244 240 237 239 241 241 240 237 227 223 227 227 225 224 222 222 222 219 217 211 203 205
217 221 222 223 219 219 220 217 214 211 204 201 204 190 187 210 213 217 224 231 237 239 237 239 241 242 243 242 241 240 233 230 223 225 226 229 226 227 218 215 214 210 199
219 221 224 224 221 220 224 224 216 213 210 203 203 211 212 209 191 206 221 226 231 237 239 239 241 242 244 244 244 247 247 241 237 228 227 229 228 225 214 216 209 201 204
218 219 223 224 224 222 225 224 222 216 216 215 212 207 217 219 220 212 213 217 225 233 239 243 245 245 246 246 246 249 248 246 242 244 240 236 232 223 219 215 211 207 209
218 217 222 227 228 228 230 229 227 224 221 221 221 222 219 219 220 219 219 226 228 234 238 240 242 245 246 247 249 249 250 248 246 245 244 235 230 220 217 210 207 207 208
214 221 221 223 228 231 233 232 229 226 227 224 224 225 228 229 226 230 232 231 226 232 235 240 242 245 247 248 251 250 248 247 248 246 247 240 227 219 216 214 213 209 211
223 223 228 226 228 231 232 234 234 231 230 228 226 229 231 234 232 232 234 226 219 228 235 241 244 245 247 250 253 253 251 248 246 244 243 241 235 225 214 218 215 211 216
238 238 233 232 228 230 231 234 234 231 229 231 229 231 230 234 235 238 236 238 230 219 228 237 242 249 249 251 254 252 251 250 246 243 240 238 237 239 234 234 225 223 221
235 229 234 234 236 234 232 234 236 239 236 235 232 230 230 230 236 238 239 241 238 234 239 246 247 251 252 251 252 254 254 253 248 242 240 238 239 239 237 234 232 236 235
233 241 244 243 242 238 236 235 236 236 238 240 239 237 236 234 229 235 240 242 244 237 238 245 250 252 250 251 252 252 253 251 251 244 240 239 237 236 238 237 238 237 230
212 227 242 243 252 241 237 242 239 237 238 239 240 240 237 237 236 237 241 243 246 246 242 244 248 250 249 250 251 252 252 249 252 247 241 241 239 247 239 239 239 238 231
230 225 229 241 239 236 232 235 242 240 243 243 245 244 242 239 238 236 239 241 244 247 249 246 244 248 250 246 244 244 245 247 250 250 244 243 249 247 237 237 237 232 234
318 288 278 268 263 237 234 246 240 244 244 244 244 246 244 244 244 242 239 244 244 245 248 245 242 242 244 245 246 241 239 242 242 244 241 242 242 242 235 237 235 230 228
280 295 299 278 262 241 239 236 246 238 242 254 250 246 248 247 250 247 247 244 246 242 243 243 241 238 239 240 240 244 238 237 238 240 241 235 232 232 233 233 234 234 231
288 286 279 277 266 260 246 243 244 241 234 254 248 250 254 243 249 255 258 254 253 251 241 242 242 234 241 243 242 240 238 231 224 235 237 237 235 230 231 231 232 230 227
302 294 281 281 281 276 266 258 247 253 242 245 243 250 246 252 246 250 252 252 254 256 256 249 240 241 243 248 252 242 239 243 242 238 233 228 232 230 231 232 233 232 229
308 304 296 286 272 271 270 271 269 266 255 251 251 249 249 254 246 252 241 255 247 251 249 244 245 257 263 265 262 261 255 240 237 234 231 222 227 228 231 233 236 235 228
306 309 301 296 285 273 273 268 266 262 257 252 253 248 251 255 254 259 254 255 257 265 259 256 256 252 252 255 258 250 236 232 226 225 223 231 230 227 227 231 232 232 228
303 300 303 303 301 286 275 274 269 259 256 251 242 246 249 252 255 256 257 255 255 259 257 246 243 238 244 250 254 249 251 241 229 221 220 223 225 226 220 225 226 222 220